Accueil
METAR-TAF:

METAR-TAF

Aéroports :

Albenga, Italie

Aéroport international de Villanova d'Albenga

latitude: 44-03N, longitude: 008-07E, altitude: 45 m

Observation

Le bulletin a été fait il y a 1 heure et 16 minutes, à 10:50 UTC
Vent 11 kt de sud-est
Température 29°C
Humidité 55%
Pression 1009 hPa
Visibilité 10 km ou plus
pas de nuages en-dessous de 1500 mètres et pas de cumulonimbus.

METAR: LIMG 271050Z 13011KT CAVOK 29/19 Q1009

Heure: 14:06 (12:06 UTC)

Prévision

Le bulletin a été fait il y a 27 heures et 45 minutes, à 08:21 UTC
Prévision valable du 26 à 09 UTC au 26 à 18 UTC
Vent 9 kt de sud-est
Visibilité 10 km ou plus
Nuages épars à une hauteur de 3000 ft

TAF: LIMG 260821Z 2609/2618 14009KT 9999 SCT030

Observations et prévisions météorologiques de plus de 4000 aéroports (messages METAR et TAF).

Les stations disponibles sont représentées par des disques jaunes et rouges sur la carte.

Passer la souris dessus pour voir le nom de la station.

Cliquer dessus pour voir les observations et prévisions météorologiques.

Pour changer de carte: cliquez sur les boutons verts avec une croix noire pour zoomer, sur le bouton vert avec un tiret pour effectuer un zoom arrière, ou sur les flèches vertes pour les cartes adjacentes.


METAR-TAF: